Regional Weather Roundup
Issued by NWS Spokane, WA

Home | Current Version | Previous Version | Text Only | Print | Product List | Glossary On
Versions: 1 2 3 4 5 6 7 8 9 10 11 12 13 14 15 16 17 18 19 20 21 22 23 24 25 26 27 28 29 30 31 32 33 34 35 36 37 38 39 40 41 42 43 44 45 46 47 48 49 50
000
NZUS01 KOTX 051710
RWROTX
EASTERN WASHINGTON/NORTHERN IDAHO ROUNDUP
NATIONAL WEATHER SERVICE, SPOKANE WA
1000 AM PDT TUE MAY 05 2015

Note: "fair" indicated few or no clouds below 12,000 feet with no
significant weather and/or obstructions to visibility.

...NORTHEAST WASHINGTON AND NORTHERN IDAHO PANHANDLE...

CITY           SKY/WX    TMP DP  RH WIND       PRES   REMARKS
SPOKANE INTL   MOSUNNY   52  31  44 SW17      29.94R
SPOKANE DOWNTO MOSUNNY   56  31  38 SW15      29.96R
COEUR D ALENE  CLOUDY    52  34  50 S7        29.97R
DEER PARK      SUNNY     55  34  45 S16G22    29.93S
SANDPOINT      SUNNY     54  32  43 S10       29.92S
BONNERS FERRY  FAIR      54  32  43 S12G18    29.89S

...SOUTHEAST WASHINGTON AND SOUTHERN IDAHO PANHANDLE...

CITY           SKY/WX    TMP DP  RH WIND       PRES   REMARKS
WALLA WALLA    MOSUNNY   57  32  38 SW20      30.03R
PULLMAN/MOSCOW CLOUDY    49  33  54 W12G21    30.01R
LEWISTON       PTSUNNY   62  33  33 NW9       29.97S
LOWELL           N/A     57  36  45 CALM      29.98R

...COLUMBIA BASIN...

CITY           SKY/WX    TMP DP  RH WIND       PRES   REMARKS
EPHRATA        SUNNY     59  29  31 SW16      29.93S
MOSES LAKE     SUNNY     58  31  35 SW17      29.96R
TRI CITIES     SUNNY     60  34  37 SW15      30.02S
HERMISTON      SUNNY     58  36  43 W17       30.04R
PENDLETON      MOSUNNY   54  35  48 W13       30.04R

...EAST SLOPES CASCADES...

CITY           SKY/WX    TMP DP  RH WIND       PRES   REMARKS
THE DALLES     SUNNY     58  41  53 NW16      30.06R
YAKIMA         MOSUNNY   60  30  32 VRB6      29.98S
ELLENSBURG     PTSUNNY   54  32  43 NW13      29.97R
WENATCHEE      SUNNY     59  25  27 W20       29.93R
OMAK           SUNNY     59  26  28 E6        29.87S

...SOUTHERN BRITISH COLUMBIA...

CITY           SKY/WX    TMP DP  RH WIND       PRES   REMARKS
PENTICTON      PTSUNNY   55  28  35 NW7       29.88F
CASTLEGAR      MOSUNNY   61  30  31 S10G20    29.84S
CRANBROOK      MOSUNNY   59  21  23 S16G26    29.81S

...WESTERN MONTANA...

CITY           SKY/WX    TMP DP  RH WIND       PRES   REMARKS
MISSOULA       PTSUNNY   61  39  44 NW14      29.85S

...NEIGHBORING CITIES...

CITY           SKY/WX    TMP DP  RH WIND       PRES   REMARKS
SEATTLE        MOSUNNY   52  43  71 SW16      30.05R
CALGARY        PTSUNNY   59  32  36 N12       29.69S



USA.gov is the U.S. government's official web portal to all federal, state and local government web resources and services.